Year,Month,Day,Hour,Minute,Value (Times are PST for insolation in W/m^2)
2008,08,04,00,00,0.00
2008,08,04,00,01,0.00
2008,08,04,00,02,0.00
2008,08,04,00,03,0.00
2008,08,04,00,04,0.00
2008,08,04,00,05,0.00
2008,08,04,00,06,0.00
2008,08,04,00,07,0.00
2008,08,04,00,08,0.00
2008,08,04,00,09,0.00
2008,08,04,00,10,0.00
2008,08,04,00,11,0.00
2008,08,04,00,12,0.00
2008,08,04,01,02,0.00
2008,08,04,01,03,0.00
2008,08,04,01,04,0.00
2008,08,04,01,05,0.00
2008,08,04,01,06,0.00
2008,08,04,01,07,0.00
2008,08,04,01,08,0.00
2008,08,04,01,09,0.00
2008,08,04,01,10,0.00
2008,08,04,01,11,0.00
2008,08,04,01,12,0.00
2008,08,04,01,13,0.00
2008,08,04,01,14,0.00
2008,08,04,01,15,0.00
2008,08,04,01,16,0.00
2008,08,04,01,17,0.00
2008,08,04,01,18,0.00
2008,08,04,01,19,0.00
2008,08,04,01,20,0.00
2008,08,04,01,21,0.00
2008,08,04,01,22,0.00
2008,08,04,01,23,0.00
2008,08,04,01,24,0.00
2008,08,04,01,25,0.00
2008,08,04,01,26,0.00
2008,08,04,01,27,0.00
2008,08,04,01,28,0.00
2008,08,04,01,29,0.00
2008,08,04,01,30,0.00
2008,08,04,01,31,0.00
2008,08,04,01,32,0.00
2008,08,04,01,33,0.00
2008,08,04,01,34,0.00
2008,08,04,01,35,0.00
2008,08,04,01,36,0.00
2008,08,04,01,37,0.00
2008,08,04,01,38,0.00
2008,08,04,01,39,0.00
2008,08,04,01,40,0.00
2008,08,04,01,41,0.00
2008,08,04,01,42,0.00
2008,08,04,01,43,0.00
2008,08,04,01,44,0.00
2008,08,04,01,45,0.00
2008,08,04,01,46,0.00
2008,08,04,01,47,0.00
2008,08,04,01,48,0.00
2008,08,04,01,49,0.00
2008,08,04,01,50,0.00
2008,08,04,01,51,0.00
2008,08,04,01,52,0.00
2008,08,04,01,53,0.00
2008,08,04,01,54,0.00
2008,08,04,01,55,0.00
2008,08,04,01,56,0.00
2008,08,04,01,57,0.00
2008,08,04,01,58,0.00
2008,08,04,01,59,0.00
2008,08,04,02,00,0.00
2008,08,04,02,01,0.00
2008,08,04,02,02,0.00
2008,08,04,02,03,0.00
2008,08,04,02,04,0.00
2008,08,04,02,05,0.00
2008,08,04,02,06,0.00
2008,08,04,02,07,0.00
2008,08,04,02,08,0.00
2008,08,04,02,09,0.00
2008,08,04,02,10,0.00
2008,08,04,02,11,0.00
2008,08,04,02,12,0.00
2008,08,04,02,13,0.00
2008,08,04,02,14,0.00
2008,08,04,02,15,0.00
2008,08,04,02,16,0.00
2008,08,04,02,17,0.00
2008,08,04,02,18,0.00
2008,08,04,02,19,0.00
2008,08,04,02,20,0.00
2008,08,04,02,21,0.00
2008,08,04,02,22,0.00
2008,08,04,02,23,0.00
2008,08,04,02,24,0.00
2008,08,04,02,25,0.00
2008,08,04,02,26,0.00
2008,08,04,02,27,0.00
2008,08,04,02,28,0.00
2008,08,04,02,29,0.00
2008,08,04,02,30,0.00
2008,08,04,02,31,0.00
2008,08,04,02,32,0.00
2008,08,04,02,33,0.00
2008,08,04,02,34,0.00
2008,08,04,02,35,0.00
2008,08,04,02,36,0.00
2008,08,04,02,37,0.00
2008,08,04,02,38,0.00
2008,08,04,02,39,0.00
2008,08,04,02,40,0.00
2008,08,04,02,41,0.00
2008,08,04,02,42,0.00
2008,08,04,02,43,0.00
2008,08,04,02,44,0.00
2008,08,04,02,45,0.00
2008,08,04,02,46,0.00
2008,08,04,02,47,0.00
2008,08,04,02,48,0.00
2008,08,04,02,49,0.00
2008,08,04,02,50,0.00
2008,08,04,02,51,0.00
2008,08,04,02,52,0.00
2008,08,04,02,53,0.00
2008,08,04,02,54,0.00
2008,08,04,02,55,0.00
2008,08,04,02,56,0.00
2008,08,04,02,57,0.00
2008,08,04,02,58,0.00
2008,08,04,02,59,0.00
2008,08,04,03,00,0.00
2008,08,04,03,01,0.00
2008,08,04,03,02,0.00
2008,08,04,03,03,0.00
2008,08,04,03,04,0.00
2008,08,04,03,05,0.00
2008,08,04,03,06,0.00
2008,08,04,03,07,0.00
2008,08,04,03,08,0.00
2008,08,04,03,09,0.00
2008,08,04,03,10,0.00
2008,08,04,03,11,0.00
2008,08,04,03,12,0.00
2008,08,04,03,13,0.00
2008,08,04,03,14,0.00
2008,08,04,03,15,0.00
2008,08,04,03,16,0.00
2008,08,04,03,17,0.00
2008,08,04,03,18,0.00
2008,08,04,03,19,0.00
2008,08,04,03,20,0.00
2008,08,04,03,21,0.00
2008,08,04,03,22,0.00
2008,08,04,03,23,0.00
2008,08,04,03,24,0.00
2008,08,04,03,25,0.00
2008,08,04,03,26,0.00
2008,08,04,03,27,0.00
2008,08,04,03,28,0.00
2008,08,04,03,29,0.00
2008,08,04,03,30,0.00
2008,08,04,03,31,0.00
2008,08,04,03,32,0.00
2008,08,04,03,33,0.00
2008,08,04,03,34,0.00
2008,08,04,03,35,0.00
2008,08,04,03,36,0.00
2008,08,04,03,37,0.00
2008,08,04,03,38,0.00
2008,08,04,03,39,0.00
2008,08,04,03,40,0.00
2008,08,04,03,41,0.00
2008,08,04,03,42,0.00
2008,08,04,03,43,0.00
2008,08,04,03,44,0.00
2008,08,04,03,45,0.00
2008,08,04,03,46,0.00
2008,08,04,03,47,0.00
2008,08,04,03,48,0.00
2008,08,04,03,49,0.00
2008,08,04,03,50,0.00
2008,08,04,03,51,0.00
2008,08,04,03,52,0.00
2008,08,04,03,53,0.00
2008,08,04,03,54,0.00
2008,08,04,03,55,0.00
2008,08,04,03,56,0.00
2008,08,04,03,57,0.00
2008,08,04,03,58,0.00
2008,08,04,03,59,0.00
2008,08,04,04,00,0.00
2008,08,04,04,01,0.00
2008,08,04,04,02,0.00
2008,08,04,04,03,0.00
2008,08,04,04,04,0.00
2008,08,04,04,05,0.00
2008,08,04,04,06,0.00
2008,08,04,04,07,0.00
2008,08,04,04,08,0.00
2008,08,04,04,09,0.00
2008,08,04,04,10,0.00
2008,08,04,04,11,0.00
2008,08,04,04,12,0.00
2008,08,04,04,13,0.00
2008,08,04,04,14,0.00
2008,08,04,04,15,0.00
2008,08,04,04,16,0.00
2008,08,04,04,17,0.00
2008,08,04,04,18,0.00
2008,08,04,04,19,0.00
2008,08,04,04,20,0.00
2008,08,04,04,21,0.00
2008,08,04,04,22,0.00
2008,08,04,04,23,0.00
2008,08,04,04,24,0.00
2008,08,04,04,25,0.00
2008,08,04,04,26,0.00
2008,08,04,04,27,0.00
2008,08,04,04,28,0.00
2008,08,04,04,29,0.00
2008,08,04,04,30,0.00
2008,08,04,04,31,0.00
2008,08,04,04,32,0.00
2008,08,04,04,33,0.00
2008,08,04,04,34,0.00
2008,08,04,04,35,0.00
2008,08,04,04,36,0.00
2008,08,04,04,37,0.00
2008,08,04,04,38,0.00
2008,08,04,04,39,0.00
2008,08,04,04,40,0.00
2008,08,04,04,41,0.00
2008,08,04,04,42,0.00
2008,08,04,04,43,0.00
2008,08,04,04,44,0.00
2008,08,04,04,45,0.00
2008,08,04,04,46,0.00
2008,08,04,04,47,0.00
2008,08,04,04,48,0.00
2008,08,04,04,49,0.00
2008,08,04,04,50,0.00
2008,08,04,04,51,0.00
2008,08,04,04,52,0.00
2008,08,04,04,53,0.00
2008,08,04,04,54,0.00
2008,08,04,04,55,0.00
2008,08,04,04,56,0.00
2008,08,04,04,57,0.00
2008,08,04,04,58,0.00
2008,08,04,04,59,0.00
2008,08,04,05,00,0.00
2008,08,04,05,01,0.00
2008,08,04,05,02,0.00
2008,08,04,05,03,0.00
2008,08,04,05,04,0.00
2008,08,04,05,05,0.00
2008,08,04,05,06,0.00
2008,08,04,05,07,0.00
2008,08,04,05,08,0.00
2008,08,04,05,09,0.00
2008,08,04,05,10,0.00
2008,08,04,05,11,0.00
2008,08,04,05,12,0.00
2008,08,04,05,13,0.00
2008,08,04,05,14,0.00
2008,08,04,05,15,0.00
2008,08,04,05,16,0.00
2008,08,04,05,17,0.00
2008,08,04,05,18,0.00
2008,08,04,05,19,0.00
2008,08,04,05,20,0.00
2008,08,04,05,21,0.00
2008,08,04,05,22,0.00
2008,08,04,05,23,0.00
2008,08,04,05,24,0.00
2008,08,04,05,25,0.00
2008,08,04,05,26,0.00
2008,08,04,05,27,0.00
2008,08,04,05,28,0.00
2008,08,04,05,29,0.00
2008,08,04,05,30,0.00
2008,08,04,05,31,0.00
2008,08,04,05,32,0.00
2008,08,04,05,33,0.00
2008,08,04,05,34,0.00
2008,08,04,05,35,0.00
2008,08,04,05,36,0.00
2008,08,04,05,37,0.00
2008,08,04,05,38,0.00
2008,08,04,05,39,0.00
2008,08,04,05,40,0.00
2008,08,04,05,41,0.00
2008,08,04,05,42,0.00
2008,08,04,05,43,0.00
2008,08,04,05,44,0.00
2008,08,04,05,45,0.00
2008,08,04,05,46,0.00
2008,08,04,05,47,0.00
2008,08,04,05,48,0.00
2008,08,04,05,49,0.00
2008,08,04,05,50,0.00
2008,08,04,05,51,0.00
2008,08,04,05,52,0.00
2008,08,04,05,53,0.00
2008,08,04,05,54,0.00
2008,08,04,05,55,0.00
2008,08,04,05,56,0.00
2008,08,04,05,57,0.00
2008,08,04,05,58,0.00
2008,08,04,05,59,0.00
2008,08,04,06,00,0.00
2008,08,04,06,01,0.00
2008,08,04,06,02,4.20
2008,08,04,06,03,5.00
2008,08,04,06,04,5.00
2008,08,04,06,05,5.00
2008,08,04,06,06,5.00
2008,08,04,06,07,5.00
2008,08,04,06,08,6.10
2008,08,04,06,09,7.00
2008,08,04,06,10,7.00
2008,08,04,06,11,7.00
2008,08,04,06,12,7.00
2008,08,04,06,13,7.00
2008,08,04,06,14,7.60
2008,08,04,06,15,9.00
2008,08,04,06,16,9.00
2008,08,04,06,17,9.00
2008,08,04,06,18,9.00
2008,08,04,06,19,9.00
2008,08,04,06,20,9.00
2008,08,04,06,21,11.00
2008,08,04,06,22,11.00
2008,08,04,06,23,11.00
2008,08,04,06,24,11.00
2008,08,04,06,25,11.00
2008,08,04,06,26,11.00
2008,08,04,06,27,11.80
2008,08,04,06,28,12.00
2008,08,04,06,29,12.00
2008,08,04,06,30,12.00
2008,08,04,06,31,12.00
2008,08,04,06,32,12.00
2008,08,04,06,33,12.00
2008,08,04,06,34,13.20
2008,08,04,06,35,14.00
2008,08,04,06,36,14.00
2008,08,04,06,37,14.00
2008,08,04,06,38,14.00
2008,08,04,06,39,14.00
2008,08,04,06,40,14.00
2008,08,04,06,41,14.80
2008,08,04,06,42,16.00
2008,08,04,06,43,16.00
2008,08,04,06,44,16.00
2008,08,04,06,45,16.00
2008,08,04,06,46,16.00
2008,08,04,06,47,16.00
2008,08,04,06,48,16.50
2008,08,04,06,49,18.00
2008,08,04,06,50,18.00
2008,08,04,06,51,18.00
2008,08,04,06,52,18.00
2008,08,04,06,53,18.00
2008,08,04,06,54,18.00
2008,08,04,06,55,18.00
2008,08,04,06,56,18.00
2008,08,04,06,57,18.30
2008,08,04,06,58,19.00
2008,08,04,06,59,19.00
2008,08,04,07,00,19.00
2008,08,04,07,01,19.00
2008,08,04,07,02,19.00
2008,08,04,07,03,19.00
2008,08,04,07,04,19.00
2008,08,04,07,05,19.40
2008,08,04,07,06,21.00
2008,08,04,07,07,21.00
2008,08,04,07,08,21.00
2008,08,04,07,09,21.00
2008,08,04,07,10,21.00
2008,08,04,07,11,21.00
2008,08,04,07,12,21.00
2008,08,04,07,13,21.00
2008,08,04,07,14,21.00
2008,08,04,07,15,21.00
2008,08,04,07,16,21.90
2008,08,04,07,17,23.00
2008,08,04,07,18,23.00
2008,08,04,07,19,24.60
2008,08,04,07,20,25.00
2008,08,04,07,21,23.00
2008,08,04,07,22,23.00
2008,08,04,07,23,23.00
2008,08,04,07,24,23.00
2008,08,04,07,25,23.00
2008,08,04,07,26,23.00
2008,08,04,07,27,23.00
2008,08,04,07,28,24.70
2008,08,04,07,29,25.00
2008,08,04,07,30,25.00
2008,08,04,07,31,25.00
2008,08,04,07,32,25.00
2008,08,04,07,33,25.00
2008,08,04,07,34,25.00
2008,08,04,07,35,25.00
2008,08,04,07,36,25.00
2008,08,04,07,37,25.00
2008,08,04,07,38,25.10
2008,08,04,07,39,26.00
2008,08,04,07,40,26.00
2008,08,04,07,41,26.00
2008,08,04,07,42,26.00
2008,08,04,07,43,26.00
2008,08,04,07,44,27.40
2008,08,04,07,45,26.40
2008,08,04,07,46,26.00
2008,08,04,07,47,26.00
2008,08,04,07,48,26.00
2008,08,04,07,49,26.00
2008,08,04,07,50,26.00
2008,08,04,07,51,26.00
2008,08,04,07,52,26.00
2008,08,04,07,53,26.00
2008,08,04,07,54,26.00
2008,08,04,07,55,26.00
2008,08,04,07,56,26.20
2008,08,04,07,57,28.00
2008,08,04,07,58,28.00
2008,08,04,07,59,28.00
2008,08,04,08,00,28.00
2008,08,04,08,01,28.00
2008,08,04,08,02,28.00
2008,08,04,08,03,28.00
2008,08,04,08,04,28.00
2008,08,04,08,05,28.00
2008,08,04,08,06,28.00
2008,08,04,08,07,28.00
2008,08,04,08,08,28.00
2008,08,04,08,09,28.00
2008,08,04,08,10,28.00
2008,08,04,08,11,28.00
2008,08,04,08,12,28.00
2008,08,04,08,13,30.00
2008,08,04,08,14,30.50
2008,08,04,08,15,33.00
2008,08,04,08,16,31.70
2008,08,04,08,17,30.00
2008,08,04,08,18,30.00
2008,08,04,08,19,30.00
2008,08,04,08,20,30.00
2008,08,04,08,21,30.00
2008,08,04,08,22,30.00
2008,08,04,08,23,30.00
2008,08,04,08,24,30.00
2008,08,04,08,25,30.00
2008,08,04,08,26,30.00
2008,08,04,08,27,30.00
2008,08,04,08,28,30.00
2008,08,04,08,29,30.00
2008,08,04,08,30,30.00
2008,08,04,08,31,30.00
2008,08,04,08,32,30.00
2008,08,04,08,33,30.00
2008,08,04,08,34,30.00
2008,08,04,08,35,30.00
2008,08,04,08,36,30.00
2008,08,04,08,37,31.60
2008,08,04,08,38,32.00
2008,08,04,08,39,32.00
2008,08,04,08,40,32.00
2008,08,04,08,41,32.00
2008,08,04,08,42,32.00
2008,08,04,08,43,32.00
2008,08,04,08,44,32.00
2008,08,04,08,45,32.00
2008,08,04,08,46,32.00
2008,08,04,08,47,32.00
2008,08,04,08,48,32.00
2008,08,04,08,49,32.00
2008,08,04,08,50,32.00
2008,08,04,08,51,32.00
2008,08,04,08,52,32.00
2008,08,04,08,53,32.00
2008,08,04,08,54,32.00
2008,08,04,08,55,32.80
2008,08,04,08,56,33.00
2008,08,04,08,57,34.70
2008,08,04,08,58,44.50
2008,08,04,08,59,54.20
2008,08,04,09,00,81.80
2008,08,04,09,01,80.30
2008,08,04,09,02,51.50
2008,08,04,09,03,45.60
2008,08,04,09,04,46.90
2008,08,04,09,05,36.60
2008,08,04,09,06,34.20
2008,08,04,09,07,51.20
2008,08,04,09,08,72.00
2008,08,04,09,09,62.50
2008,08,04,09,10,45.80
2008,08,04,09,11,68.40
2008,08,04,09,12,59.80
2008,08,04,09,13,56.00
2008,08,04,09,14,59.20
2008,08,04,09,15,68.00
2008,08,04,09,16,43.30
2008,08,04,09,17,43.90
2008,08,04,09,18,64.90
2008,08,04,09,19,55.80
2008,08,04,09,20,61.00
2008,08,04,09,21,47.00
2008,08,04,09,22,50.20
2008,08,04,09,23,72.20
2008,08,04,09,24,110.70
2008,08,04,09,25,95.80
2008,08,04,09,26,104.40
2008,08,04,09,27,136.30
2008,08,04,09,28,118.10
2008,08,04,09,29,87.20
2008,08,04,09,30,109.60
2008,08,04,09,31,92.30
2008,08,04,09,32,65.40
2008,08,04,09,33,57.30
2008,08,04,09,34,59.50
2008,08,04,09,35,47.90
2008,08,04,09,36,42.00
2008,08,04,09,37,39.60
2008,08,04,09,38,54.20
2008,08,04,09,39,128.50
2008,08,04,09,40,131.50
2008,08,04,09,41,86.20
2008,08,04,09,42,42.70
2008,08,04,09,43,56.10
2008,08,04,09,44,108.10
2008,08,04,09,45,164.40
2008,08,04,09,46,242.50
2008,08,04,09,47,237.00
2008,08,04,09,48,215.80
2008,08,04,09,49,49.30
2008,08,04,09,50,65.30
2008,08,04,09,51,87.20
2008,08,04,09,52,166.70
2008,08,04,09,53,271.00
2008,08,04,09,54,319.90
2008,08,04,09,55,325.00
2008,08,04,09,56,514.80
2008,08,04,09,57,566.30
2008,08,04,09,58,568.00
2008,08,04,09,59,569.10
2008,08,04,10,00,571.90
2008,08,04,10,01,574.10
2008,08,04,10,02,576.30
2008,08,04,10,03,579.20
2008,08,04,10,04,581.90
2008,08,04,10,05,584.10
2008,08,04,10,06,585.80
2008,08,04,10,07,589.00
2008,08,04,10,08,590.10
2008,08,04,10,09,592.00
2008,08,04,10,10,594.50
2008,08,04,10,11,597.50
2008,08,04,10,12,598.80
2008,08,04,10,13,602.80
2008,08,04,10,14,606.30
2008,08,04,10,15,608.50
2008,08,04,10,16,610.00
2008,08,04,10,17,611.40
2008,08,04,10,18,614.20
2008,08,04,10,19,616.40
2008,08,04,10,20,618.60
2008,08,04,10,21,620.80
2008,08,04,10,22,624.00
2008,08,04,10,23,624.30
2008,08,04,10,24,626.80
2008,08,04,10,25,629.70
2008,08,04,10,26,632.00
2008,08,04,10,27,634.20
2008,08,04,10,28,635.70
2008,08,04,10,29,637.70
2008,08,04,10,30,639.70
2008,08,04,10,31,640.30
2008,08,04,10,32,643.50
2008,08,04,10,33,645.60
2008,08,04,10,34,648.30
2008,08,04,10,35,650.00
2008,08,04,10,36,651.30
2008,08,04,10,37,654.90
2008,08,04,10,38,654.40
2008,08,04,10,39,656.80
2008,08,04,10,40,659.60
2008,08,04,10,41,663.00
2008,08,04,10,42,663.00
2008,08,04,10,43,664.40
2008,08,04,10,44,668.20
2008,08,04,10,45,670.00
2008,08,04,10,46,670.80
2008,08,04,10,47,674.60
2008,08,04,10,48,675.10
2008,08,04,10,49,677.50
2008,08,04,10,50,680.00
2008,08,04,10,51,680.80
2008,08,04,10,52,684.10
2008,08,04,10,53,686.60
2008,08,04,10,54,688.40
2008,08,04,10,55,689.00
2008,08,04,10,56,692.80
2008,08,04,10,57,694.30
2008,08,04,10,58,696.40
2008,08,04,10,59,698.00
2008,08,04,11,00,699.30
2008,08,04,11,01,701.00
2008,08,04,11,02,702.20
2008,08,04,11,03,705.90
2008,08,04,11,04,707.00
2008,08,04,11,05,708.10
2008,08,04,11,06,710.30
2008,08,04,11,07,712.40
2008,08,04,11,08,714.30
2008,08,04,11,09,715.00
2008,08,04,11,10,715.00
2008,08,04,11,11,717.70
2008,08,04,11,12,720.70
2008,08,04,11,13,721.80
2008,08,04,11,14,724.00
2008,08,04,11,15,726.00
2008,08,04,11,16,726.60
2008,08,04,11,17,728.40
2008,08,04,11,18,730.10
2008,08,04,11,19,732.30
2008,08,04,11,20,734.40
2008,08,04,11,21,735.00
2008,08,04,11,22,736.90
2008,08,04,11,23,738.20
2008,08,04,11,24,740.50
2008,08,04,11,25,742.00
2008,08,04,11,26,742.90
2008,08,04,11,27,744.60
2008,08,04,11,28,745.00
2008,08,04,11,29,746.60
2008,08,04,11,30,747.00
2008,08,04,11,31,750.80
2008,08,04,11,32,752.00
2008,08,04,11,33,752.50
2008,08,04,11,34,755.60
2008,08,04,11,35,758.00
2008,08,04,11,36,758.60
2008,08,04,11,37,758.30
2008,08,04,11,38,760.20
2008,08,04,11,39,761.00
2008,08,04,11,40,763.10
2008,08,04,11,41,765.20
2008,08,04,11,42,766.00
2008,08,04,11,43,766.00
2008,08,04,11,44,766.00
2008,08,04,11,45,769.80
2008,08,04,11,46,770.60
2008,08,04,11,47,771.80
2008,08,04,11,48,775.00
2008,08,04,11,49,775.20
2008,08,04,11,50,776.50
2008,08,04,11,51,776.50
2008,08,04,11,52,778.10
2008,08,04,11,53,778.70
2008,08,04,11,54,780.00
2008,08,04,11,55,781.60
2008,08,04,11,56,782.00
2008,08,04,11,57,786.00
2008,08,04,11,58,786.00
2008,08,04,11,59,786.50
2008,08,04,12,00,787.20
2008,08,04,12,01,788.60
2008,08,04,12,02,791.00
2008,08,04,12,03,791.00
2008,08,04,12,04,794.40
2008,08,04,12,05,793.20
2008,08,04,12,06,795.10
2008,08,04,12,07,795.80
2008,08,04,12,08,796.80
2008,08,04,12,09,800.00
2008,08,04,12,10,800.00
2008,08,04,12,11,798.60
2008,08,04,12,12,799.60
2008,08,04,12,13,801.70
2008,08,04,12,14,804.70
2008,08,04,12,15,805.00
2008,08,04,12,16,805.00
2008,08,04,12,17,805.70
2008,08,04,12,18,807.00
2008,08,04,12,19,807.00
2008,08,04,12,20,808.40
2008,08,04,12,21,809.80
2008,08,04,12,22,811.80
2008,08,04,12,23,810.30
2008,08,04,12,24,813.70
2008,08,04,12,25,811.40
2008,08,04,12,26,811.70
2008,08,04,12,27,812.90
2008,08,04,12,28,813.20
2008,08,04,12,29,814.00
2008,08,04,12,30,814.00
2008,08,04,12,31,815.90
2008,08,04,12,32,819.30
2008,08,04,12,33,821.00
2008,08,04,12,34,821.00
2008,08,04,12,35,821.90
2008,08,04,12,36,823.00
2008,08,04,12,37,823.00
2008,08,04,12,38,821.50
2008,08,04,12,39,823.70
2008,08,04,12,40,823.30
2008,08,04,12,41,827.60
2008,08,04,12,42,826.50
2008,08,04,12,43,828.00
2008,08,04,12,44,828.90
2008,08,04,12,45,827.50
2008,08,04,12,46,828.70
2008,08,04,12,47,830.00
2008,08,04,12,48,830.00
2008,08,04,12,49,830.00
2008,08,04,12,50,830.20
2008,08,04,12,51,831.00
2008,08,04,12,52,831.00
2008,08,04,12,53,832.10
2008,08,04,12,54,833.00
2008,08,04,12,55,834.60
2008,08,04,12,56,833.20
2008,08,04,12,57,833.20
2008,08,04,12,58,837.00
2008,08,04,12,59,836.50
2008,08,04,13,00,835.00
2008,08,04,13,01,835.90
2008,08,04,13,02,835.80
2008,08,04,13,03,835.00
2008,08,04,13,04,833.40
2008,08,04,13,05,837.50
2008,08,04,13,06,837.90
2008,08,04,13,07,837.20
2008,08,04,13,08,837.70
2008,08,04,13,09,837.40
2008,08,04,13,10,838.00
2008,08,04,13,11,838.00
2008,08,04,13,12,838.00
2008,08,04,13,13,838.00
2008,08,04,13,14,839.90
2008,08,04,13,15,840.30
2008,08,04,13,16,842.00
2008,08,04,13,17,842.00
2008,08,04,13,18,840.40
2008,08,04,13,19,838.00
2008,08,04,13,20,839.20
2008,08,04,13,21,840.00
2008,08,04,13,22,841.70
2008,08,04,13,23,840.00
2008,08,04,13,24,840.00
2008,08,04,13,25,839.50
2008,08,04,13,26,838.00
2008,08,04,13,27,838.00
2008,08,04,13,28,839.20
2008,08,04,13,29,840.00
2008,08,04,13,30,838.50
2008,08,04,13,31,839.90
2008,08,04,13,32,840.00
2008,08,04,13,33,839.60
2008,08,04,13,34,838.50
2008,08,04,13,35,839.20
2008,08,04,13,36,839.10
2008,08,04,13,37,838.70
2008,08,04,13,38,838.00
2008,08,04,13,39,837.20
2008,08,04,13,40,837.90
2008,08,04,13,41,837.90
2008,08,04,13,42,837.00
2008,08,04,13,43,837.00
2008,08,04,13,44,837.50
2008,08,04,13,45,838.00
2008,08,04,13,46,837.40
2008,08,04,13,47,837.00
2008,08,04,13,48,835.30
2008,08,04,13,49,835.00
2008,08,04,13,50,835.30
2008,08,04,13,51,836.40
2008,08,04,13,52,835.00
2008,08,04,13,53,835.00
2008,08,04,13,54,835.00
2008,08,04,13,55,833.50
2008,08,04,13,56,833.00
2008,08,04,13,57,831.30
2008,08,04,13,58,832.80
2008,08,04,13,59,831.00
2008,08,04,14,00,831.00
2008,08,04,14,01,831.00
2008,08,04,14,02,831.00
2008,08,04,14,03,832.20
2008,08,04,14,04,830.80
2008,08,04,14,05,830.80
2008,08,04,14,06,831.00
2008,08,04,14,07,830.80
2008,08,04,14,08,830.00
2008,08,04,14,09,829.30
2008,08,04,14,10,828.00
2008,08,04,14,11,826.80
2008,08,04,14,12,826.00
2008,08,04,14,13,826.00
2008,08,04,14,14,826.00
2008,08,04,14,15,825.80
2008,08,04,14,16,823.20
2008,08,04,14,17,824.00
2008,08,04,14,18,824.00
2008,08,04,14,19,822.40
2008,08,04,14,20,819.70
2008,08,04,14,21,820.40
2008,08,04,14,22,821.00
2008,08,04,14,23,819.10
2008,08,04,14,24,820.80
2008,08,04,14,25,819.00
2008,08,04,14,26,819.00
2008,08,04,14,27,818.20
2008,08,04,14,28,816.50
2008,08,04,14,29,816.00
2008,08,04,14,30,816.00
2008,08,04,14,31,816.00
2008,08,04,14,32,816.00
2008,08,04,14,33,815.40
2008,08,04,14,34,812.00
2008,08,04,14,35,812.00
2008,08,04,14,36,811.10
2008,08,04,14,37,809.40
2008,08,04,14,38,807.60
2008,08,04,14,39,807.00
2008,08,04,14,40,807.00
2008,08,04,14,41,808.80
2008,08,04,14,42,806.60
2008,08,04,14,43,805.00
2008,08,04,14,44,804.20
2008,08,04,14,45,802.50
2008,08,04,14,46,802.00
2008,08,04,14,47,800.50
2008,08,04,14,48,800.00
2008,08,04,14,49,798.20
2008,08,04,14,50,797.70
2008,08,04,14,51,795.30
2008,08,04,14,52,793.60
2008,08,04,14,53,794.10
2008,08,04,14,54,791.80
2008,08,04,14,55,792.40
2008,08,04,14,56,791.40
2008,08,04,14,57,792.80
2008,08,04,14,58,790.90
2008,08,04,14,59,788.80
2008,08,04,15,00,787.40
2008,08,04,15,01,785.30
2008,08,04,15,02,783.10
2008,08,04,15,03,783.10
2008,08,04,15,04,784.00
2008,08,04,15,05,784.00
2008,08,04,15,06,780.20
2008,08,04,15,07,779.90
2008,08,04,15,08,778.60
2008,08,04,15,09,776.40
2008,08,04,15,10,774.20
2008,08,04,15,11,773.00
2008,08,04,15,12,772.40
2008,08,04,15,13,770.40
2008,08,04,15,14,770.00
2008,08,04,15,15,765.90
2008,08,04,15,16,765.00
2008,08,04,15,17,765.30
2008,08,04,15,18,764.90
2008,08,04,15,19,762.10
2008,08,04,15,20,761.00
2008,08,04,15,21,759.60
2008,08,04,15,22,756.60
2008,08,04,15,23,754.20
2008,08,04,15,24,756.00
2008,08,04,15,25,755.60
2008,08,04,15,26,753.40
2008,08,04,15,27,751.60
2008,08,04,15,28,749.90
2008,08,04,15,29,747.70
2008,08,04,15,30,747.00
2008,08,04,15,31,745.30
2008,08,04,15,32,744.80
2008,08,04,15,33,741.70
2008,08,04,15,34,740.00
2008,08,04,15,35,739.30
2008,08,04,15,36,736.70
2008,08,04,15,37,735.00
2008,08,04,15,38,733.60
2008,08,04,15,39,731.40
2008,08,04,15,40,731.00
2008,08,04,15,41,729.10
2008,08,04,15,42,730.20
2008,08,04,15,43,726.00
2008,08,04,15,44,726.00
2008,08,04,15,45,725.00
2008,08,04,15,46,722.70
2008,08,04,15,47,719.90
2008,08,04,15,48,720.70
2008,08,04,15,49,717.20
2008,08,04,15,50,714.90
2008,08,04,15,51,713.70
2008,08,04,15,52,712.00
2008,08,04,15,53,711.20
2008,08,04,15,54,709.00
2008,08,04,15,55,707.40
2008,08,04,15,56,705.50
2008,08,04,15,57,703.30
2008,08,04,15,58,701.10
2008,08,04,15,59,698.00
2008,08,04,16,00,697.50
2008,08,04,16,01,695.30
2008,08,04,16,02,694.00
2008,08,04,16,03,693.40
2008,08,04,16,04,690.30
2008,08,04,16,05,689.00
2008,08,04,16,06,686.50
2008,08,04,16,07,684.00
2008,08,04,16,08,683.70
2008,08,04,16,09,681.50
2008,08,04,16,10,679.60
2008,08,04,16,11,679.00
2008,08,04,16,12,679.00
2008,08,04,16,13,674.60
2008,08,04,16,14,671.40
2008,08,04,16,15,671.00
2008,08,04,16,16,669.80
2008,08,04,16,17,670.30
2008,08,04,16,18,674.20
2008,08,04,16,19,663.00
2008,08,04,16,20,661.90
2008,08,04,16,21,658.30
2008,08,04,16,22,656.20
2008,08,04,16,23,654.30
2008,08,04,16,24,651.90
2008,08,04,16,25,649.80
2008,08,04,16,26,647.90
2008,08,04,16,27,644.30
2008,08,04,16,28,643.00
2008,08,04,16,29,642.40
2008,08,04,16,30,640.70
2008,08,04,16,31,638.50
2008,08,04,16,32,635.30
2008,08,04,16,33,634.60
2008,08,04,16,34,634.80
2008,08,04,16,35,642.70
2008,08,04,16,36,629.80
2008,08,04,16,37,628.20
2008,08,04,16,38,623.50
2008,08,04,16,39,623.50
2008,08,04,16,40,621.60
2008,08,04,16,41,619.10
2008,08,04,16,42,617.00
2008,08,04,16,43,615.90
2008,08,04,16,44,612.00
2008,08,04,16,45,611.20
2008,08,04,16,46,608.80
2008,08,04,16,47,608.00
2008,08,04,16,48,604.10
2008,08,04,16,49,601.30
2008,08,04,16,50,599.00
2008,08,04,16,51,598.00
2008,08,04,16,52,596.70
2008,08,04,16,53,594.00
2008,08,04,16,54,592.60
2008,08,04,16,55,591.00
2008,08,04,16,56,589.70
2008,08,04,16,57,586.00
2008,08,04,16,58,582.20
2008,08,04,16,59,579.80
2008,08,04,17,00,577.80
2008,08,04,17,01,576.40
2008,08,04,17,02,574.10
2008,08,04,17,03,571.40
2008,08,04,17,04,568.70
2008,08,04,17,05,566.50
2008,08,04,17,06,563.50
2008,08,04,17,07,563.00
2008,08,04,17,08,558.80
2008,08,04,17,09,556.40
2008,08,04,17,10,554.00
2008,08,04,17,11,553.10
2008,08,04,17,12,549.70
2008,08,04,17,13,547.30
2008,08,04,17,14,545.40
2008,08,04,17,15,543.20
2008,08,04,17,16,540.90
2008,08,04,17,17,539.40
2008,08,04,17,18,536.00
2008,08,04,17,19,534.20
2008,08,04,17,20,530.00
2008,08,04,17,21,527.70
2008,08,04,17,22,524.80
2008,08,04,17,23,522.40
2008,08,04,17,24,519.20
2008,08,04,17,25,516.80
2008,08,04,17,26,514.50
2008,08,04,17,27,512.00
2008,08,04,17,28,509.20
2008,08,04,17,29,506.90
2008,08,04,17,30,504.60
2008,08,04,17,31,501.80
2008,08,04,17,32,499.30
2008,08,04,17,33,495.90
2008,08,04,17,34,493.70
2008,08,04,17,35,491.50
2008,08,04,17,36,488.90
2008,08,04,17,37,485.10
2008,08,04,17,38,482.40
2008,08,04,17,39,479.10
2008,08,04,17,40,478.00
2008,08,04,17,41,475.30
2008,08,04,17,42,470.80
2008,08,04,17,43,468.40
2008,08,04,17,44,465.40
2008,08,04,17,45,462.70
2008,08,04,17,46,459.90
2008,08,04,17,47,457.70
2008,08,04,17,48,455.50
2008,08,04,17,49,452.50
2008,08,04,17,50,450.10
2008,08,04,17,51,447.80
2008,08,04,17,52,445.80
2008,08,04,17,53,443.70
2008,08,04,17,54,440.10
2008,08,04,17,55,438.40
2008,08,04,17,56,435.50
2008,08,04,17,57,432.40
2008,08,04,17,58,431.10
2008,08,04,17,59,428.80
2008,08,04,18,00,424.90